Weather in Caaguazu

Paraguay     25°27′34″S   56°00′49″W
temp.,
°C
wind,
m/s
gust,
m/s
humid.,
%
clouds,
%
prec.,
mm/h
press.,
hPa
HPBL,
m
18 may, tue
tue1823:00+14sse25860 0.0 1019103
02:00+13se23930 0.0 101952
05:00+12ese23960 0.0 101849
08:00+16ese24735 0.0 1019210
11:00+24e224370 0.0 1018906
14:00+26se21304 0.0 10151295
17:00+19se22540 0.0 101531
20:00+15ese23645 0.0 101638
19 may, wed
wed1923:00+14e23665 0.0 101638
02:00+13e256927 0.0 101585
05:00+12ene256753 0.0 101597
08:00+17ene365337 0.0 1016182
11:00+26ene333128 0.0 1014652
14:00+28ne33326 0.0 10111083
17:00+22ene22520 0.0 101034
20:00+19e24571 0.0 101176
20 may, thu
thu2023:00+17ene28621 0.0 1012141
02:00+19ene395179 0.0 1011212
05:00+19ne312486 0.0 1011305
08:00+19ne31249100 0.0 1012330
11:00+24ene374077 0.0 1012472
14:00+29n36344 0.0 1008570
17:00+25ene224764 0.0 100728
20:00+21e375444 0.0 1008116
21 may, fri
fri2123:00+22ene394898 0.0 1008205
02:00+20ene3115133 0.0 1006231
05:00+18ene3107229 0.2 1006210
08:00+21ne413615 0.5 1007307
11:00+30n613398 0.1 10051275
14:00+33nnw6153399 0.1 10013196
17:00+21nw228486 1.0 100215
20:00+19ene11960 5.4 100611
22 may, sat
sat2223:00+19wsw11970 0.0 100711
02:00+18sw3899100 0.0 1008390
05:00+18s269881 0.1 1009367
08:00+18ssw2597100 0.3 1012353
11:00+20s238169 0.3 1013689
14:00+24sw22535 0.3 10101319
17:00+20ssw256460 0.0 1010136
20:00+15s388314 0.0 1013319